Time,TemperatureF,DewpointF,PressureIn,WindDirection,WindDirectionDegrees,WindSpeedMPH,WindSpeedGustMPH,Humidity,HourlyPrecipIn,Conditions,Clouds,dailyrainin,SolarRadiationWatts/m^2,SoftwareType,DateUTC
2013-03-06 00:01:00,27.0,22.0,-100.00,NE,43,1.0,3.0,82,0.00,,,0.00,0.000000,,2013-03-06 07:01:00,
2013-03-06 00:11:00,27.0,22.0,-100.00,NE,43,1.0,3.0,82,0.00,,,0.00,0.000000,,2013-03-06 07:11:00,
2013-03-06 00:32:00,26.0,22.0,-100.00,ESE,109,0.0,1.0,85,0.00,,,0.00,0.000000,,2013-03-06 07:32:00,
2013-03-06 00:42:00,26.0,22.0,-100.00,ESE,109,0.0,1.0,85,0.00,,,0.00,0.000000,,2013-03-06 07:42:00,
2013-03-06 00:52:00,26.0,22.0,-100.00,ESE,109,0.0,1.0,85,0.00,,,0.00,0.000000,,2013-03-06 07:52:00,
2013-03-06 01:01:00,26.0,22.0,-100.00,ESE,109,0.0,1.0,85,0.00,,,0.00,0.000000,,2013-03-06 08:01:00,
2013-03-06 01:11:00,26.0,22.0,-100.00,ESE,109,0.0,1.0,85,0.00,,,0.00,0.000000,,2013-03-06 08:11:00,
2013-03-06 01:42:00,23.0,21.0,-100.00,SSW,193,0.0,2.0,90,0.00,,,0.00,0.000000,,2013-03-06 08:42:00,
2013-03-06 01:52:00,23.0,21.0,-100.00,SSW,193,0.0,2.0,90,0.00,,,0.00,0.000000,,2013-03-06 08:52:00,
2013-03-06 02:01:00,23.0,21.0,-100.00,SSW,193,0.0,2.0,90,0.00,,,0.00,0.000000,,2013-03-06 09:01:00,
2013-03-06 02:12:00,23.0,21.0,-100.00,SSW,193,0.0,2.0,90,0.00,,,0.00,0.000000,,2013-03-06 09:12:00,
2013-03-06 02:32:00,21.0,19.0,-100.00,NNE,26,1.0,3.0,92,0.00,,,0.00,0.000000,,2013-03-06 09:32:00,
2013-03-06 02:42:00,21.0,19.0,-100.00,NNE,26,1.0,3.0,92,0.00,,,0.00,0.000000,,2013-03-06 09:42:00,
2013-03-06 02:52:00,21.0,19.0,-100.00,NNE,26,1.0,3.0,92,0.00,,,0.00,0.000000,,2013-03-06 09:52:00,
2013-03-06 03:01:00,21.0,19.0,-100.00,NNE,26,1.0,3.0,92,0.00,,,0.00,0.000000,,2013-03-06 10:01:00,
2013-03-06 03:11:00,21.0,19.0,-100.00,NNE,26,1.0,3.0,92,0.00,,,0.00,0.000000,,2013-03-06 10:11:00,
2013-03-06 03:42:00,22.0,20.0,-100.00,NNW,332,2.0,4.0,93,0.00,,,0.00,0.000000,,2013-03-06 10:42:00,
2013-03-06 03:52:00,22.0,20.0,-100.00,NNW,332,2.0,4.0,93,0.00,,,0.00,0.000000,,2013-03-06 10:52:00,
2013-03-06 04:01:00,22.0,20.0,-100.00,NNW,332,2.0,4.0,93,0.00,,,0.00,0.000000,,2013-03-06 11:01:00,
2013-03-06 04:11:00,22.0,20.0,-100.00,NNW,332,2.0,4.0,93,0.00,,,0.00,0.000000,,2013-03-06 11:11:00,
2013-03-06 04:32:00,21.0,19.0,-100.00,NE,36,1.0,3.0,90,0.00,,,0.00,0.000000,,2013-03-06 11:32:00,
2013-03-06 04:42:00,21.0,19.0,-100.00,NE,36,1.0,3.0,90,0.00,,,0.00,0.000000,,2013-03-06 11:42:00,
2013-03-06 04:52:00,21.0,19.0,-100.00,NE,36,1.0,3.0,90,0.00,,,0.00,0.000000,,2013-03-06 11:52:00,
2013-03-06 05:01:00,21.0,19.0,-100.00,NE,36,1.0,3.0,90,0.00,,,0.00,0.000000,,2013-03-06 12:01:00,
2013-03-06 05:11:00,21.0,19.0,-100.00,NE,36,1.0,3.0,90,0.00,,,0.00,0.000000,,2013-03-06 12:11:00,
2013-03-06 05:33:00,20.0,18.0,-100.00,WSW,257,1.0,3.0,93,0.00,,,0.00,0.000000,,2013-03-06 12:33:00,
2013-03-06 05:43:00,20.0,18.0,-100.00,WSW,257,1.0,3.0,93,0.00,,,0.00,0.000000,,2013-03-06 12:43:00,
2013-03-06 05:52:00,20.0,18.0,-100.00,WSW,257,1.0,3.0,93,0.00,,,0.00,0.000000,,2013-03-06 12:52:00,
2013-03-06 06:01:00,20.0,18.0,-100.00,WSW,257,1.0,3.0,93,0.00,,,0.00,0.000000,,2013-03-06 13:01:00,
2013-03-06 06:11:00,20.0,18.0,-100.00,WSW,257,1.0,3.0,93,0.00,,,0.00,0.000000,,2013-03-06 13:11:00,
2013-03-06 06:42:00,20.0,18.0,-100.00,NE,43,2.0,5.0,93,0.00,,,0.00,0.000000,,2013-03-06 13:42:00,
2013-03-06 06:52:00,20.0,18.0,-100.00,NE,43,2.0,5.0,93,0.00,,,0.00,0.000000,,2013-03-06 13:52:00,
2013-03-06 07:01:00,20.0,18.0,-100.00,NE,43,2.0,5.0,93,0.00,,,0.00,0.000000,,2013-03-06 14:01:00,
2013-03-06 07:11:00,20.0,18.0,-100.00,NE,43,2.0,5.0,93,0.00,,,0.00,0.000000,,2013-03-06 14:11:00,
2013-03-06 07:32:00,19.0,17.0,-100.00,North,359,2.0,4.0,93,0.00,,,0.00,0.000000,,2013-03-06 14:32:00,
2013-03-06 07:42:00,19.0,17.0,-100.00,North,359,2.0,4.0,93,0.00,,,0.00,0.000000,,2013-03-06 14:42:00,
2013-03-06 07:52:00,19.0,17.0,-100.00,North,359,2.0,4.0,93,0.00,,,0.00,0.000000,,2013-03-06 14:52:00,
2013-03-06 08:01:00,19.0,17.0,-100.00,North,359,2.0,4.0,93,0.00,,,0.00,0.000000,,2013-03-06 15:01:00,
2013-03-06 08:11:00,19.0,17.0,-100.00,North,359,2.0,4.0,93,0.00,,,0.00,0.000000,,2013-03-06 15:11:00,
2013-03-06 08:42:00,20.0,18.0,-100.00,NNW,327,2.0,4.0,92,0.00,,,0.00,35.000000,,2013-03-06 15:42:00,
2013-03-06 08:52:00,20.0,18.0,-100.00,NNW,327,2.0,4.0,92,0.00,,,0.00,35.000000,,2013-03-06 15:52:00,
2013-03-06 09:01:00,20.0,18.0,-100.00,NNW,327,2.0,4.0,92,0.00,,,0.00,35.000000,,2013-03-06 16:01:00,
2013-03-06 09:11:00,20.0,18.0,-100.00,NNW,327,2.0,4.0,92,0.00,,,0.00,35.000000,,2013-03-06 16:11:00,
2013-03-06 09:42:00,25.0,22.0,-100.00,SSW,205,1.0,4.0,88,0.00,,,0.00,55.000000,,2013-03-06 16:42:00,
2013-03-06 09:52:00,25.0,22.0,-100.00,SSW,205,1.0,4.0,88,0.00,,,0.00,55.000000,,2013-03-06 16:52:00,
2013-03-06 10:01:00,25.0,22.0,-100.00,SSW,205,1.0,4.0,88,0.00,,,0.00,55.000000,,2013-03-06 17:01:00,
2013-03-06 10:11:00,25.0,22.0,-100.00,SSW,205,1.0,4.0,88,0.00,,,0.00,55.000000,,2013-03-06 17:11:00,
2013-03-06 10:32:00,29.0,25.0,-100.00,West,275,2.0,5.0,83,0.00,,,0.00,104.000000,,2013-03-06 17:32:00,
2013-03-06 10:42:00,29.0,25.0,-100.00,West,275,2.0,5.0,83,0.00,,,0.00,104.000000,,2013-03-06 17:42:00,
2013-03-06 10:52:00,29.0,25.0,-100.00,West,275,2.0,5.0,83,0.00,,,0.00,104.000000,,2013-03-06 17:52:00,
2013-03-06 11:01:00,29.0,25.0,-100.00,West,275,2.0,5.0,83,0.00,,,0.00,104.000000,,2013-03-06 18:01:00,
2013-03-06 11:32:00,28.0,25.0,-100.00,SE,141,2.0,9.0,88,0.00,,,0.00,96.000000,,2013-03-06 18:32:00,
2013-03-06 11:42:00,28.0,25.0,-100.00,SE,141,2.0,9.0,88,0.00,,,0.00,96.000000,,2013-03-06 18:42:00,
2013-03-06 11:52:00,28.0,25.0,-100.00,SE,141,2.0,9.0,88,0.00,,,0.00,96.000000,,2013-03-06 18:52:00,
2013-03-06 12:02:00,28.0,25.0,-100.00,SE,141,2.0,9.0,88,0.00,,,0.00,96.000000,,2013-03-06 19:02:00,
2013-03-06 12:11:00,28.0,25.0,-100.00,SE,141,2.0,9.0,88,0.00,,,0.00,96.000000,,2013-03-06 19:11:00,
2013-03-06 12:43:00,32.0,28.0,-100.00,SSW,199,3.0,6.0,86,0.03,,,-99.99,86.000000,,2013-03-06 19:43:00,
2013-03-06 12:52:00,32.0,28.0,-100.00,SSW,199,3.0,6.0,86,0.03,,,-99.99,86.000000,,2013-03-06 19:52:00,
2013-03-06 13:01:00,32.0,28.0,-100.00,SSW,199,3.0,6.0,86,0.03,,,-99.99,86.000000,,2013-03-06 20:01:00,
2013-03-06 13:11:00,32.0,28.0,-100.00,SSW,199,3.0,6.0,86,0.03,,,-99.99,86.000000,,2013-03-06 20:11:00,
2013-03-06 13:33:00,36.0,29.0,-100.00,SSW,213,4.0,6.0,77,0.05,,,0.08,135.000000,,2013-03-06 20:33:00,
2013-03-06 13:42:00,36.0,29.0,-100.00,SSW,213,4.0,6.0,77,0.05,,,0.08,135.000000,,2013-03-06 20:42:00,
2013-03-06 13:52:00,36.0,29.0,-100.00,SSW,213,4.0,6.0,77,0.05,,,0.08,135.000000,,2013-03-06 20:52:00,
2013-03-06 14:02:00,36.0,29.0,-100.00,SSW,213,4.0,6.0,77,0.05,,,0.08,135.000000,,2013-03-06 21:02:00,
2013-03-06 14:11:00,36.0,29.0,-100.00,SSW,213,4.0,6.0,77,0.05,,,0.08,135.000000,,2013-03-06 21:11:00,
2013-03-06 14:42:00,42.0,34.0,-100.00,SSE,164,3.0,6.0,72,0.00,,,0.08,401.000000,,2013-03-06 21:42:00,
2013-03-06 14:52:00,42.0,34.0,-100.00,SSE,164,3.0,6.0,72,0.00,,,0.08,401.000000,,2013-03-06 21:52:00,
2013-03-06 15:32:00,38.0,29.0,-100.00,SSW,207,2.0,9.0,70,-99.99,,,0.08,284.000000,,2013-03-06 22:32:00,
2013-03-06 15:42:00,38.0,29.0,-100.00,SSW,207,2.0,9.0,70,-99.99,,,0.08,284.000000,,2013-03-06 22:42:00,
2013-03-06 15:52:00,38.0,29.0,-100.00,SSW,207,2.0,9.0,70,-99.99,,,0.08,284.000000,,2013-03-06 22:52:00,
2013-03-06 16:01:00,38.0,29.0,-100.00,SSW,207,2.0,9.0,70,-99.99,,,0.08,284.000000,,2013-03-06 23:01:00,
2013-03-06 16:11:00,38.0,29.0,-100.00,SSW,207,2.0,9.0,70,-99.99,,,0.08,284.000000,,2013-03-06 23:11:00,
2013-03-06 16:32:00,40.0,30.0,-100.00,South,175,4.0,7.0,67,0.00,,,0.08,337.000000,,2013-03-06 23:32:00,
2013-03-06 16:42:00,40.0,30.0,-100.00,South,175,4.0,7.0,67,0.00,,,0.08,337.000000,,2013-03-06 23:42:00,
2013-03-06 16:52:00,40.0,30.0,-100.00,South,175,4.0,7.0,67,0.00,,,0.08,337.000000,,2013-03-06 23:52:00,
2013-03-06 17:01:00,40.0,30.0,-100.00,South,175,4.0,7.0,67,0.00,,,0.08,337.000000,,2013-03-07 00:01:00,
2013-03-06 17:11:00,40.0,30.0,-100.00,South,175,4.0,7.0,67,0.00,,,0.08,337.000000,,2013-03-07 00:11:00,
2013-03-06 17:32:00,38.0,30.0,-100.00,South,176,4.0,7.0,72,0.00,,,0.08,194.000000,,2013-03-07 00:32:00,
2013-03-06 17:42:00,38.0,30.0,-100.00,South,176,4.0,7.0,72,0.00,,,0.08,194.000000,,2013-03-07 00:42:00,
2013-03-06 17:52:00,38.0,30.0,-100.00,South,176,4.0,7.0,72,0.00,,,0.08,194.000000,,2013-03-07 00:52:00,
2013-03-06 18:01:00,38.0,30.0,-100.00,South,176,4.0,7.0,72,0.00,,,0.08,194.000000,,2013-03-07 01:01:00,
2013-03-06 18:11:00,38.0,30.0,-100.00,South,176,4.0,7.0,72,0.00,,,0.08,194.000000,,2013-03-07 01:11:00,
2013-03-06 18:42:00,33.0,28.0,-100.00,WSW,245,2.0,7.0,81,0.00,,,0.08,72.000000,,2013-03-07 01:42:00,
2013-03-06 18:52:00,33.0,28.0,-100.00,WSW,245,2.0,7.0,81,0.00,,,0.08,72.000000,,2013-03-07 01:52:00,
2013-03-06 19:01:00,33.0,28.0,-100.00,WSW,245,2.0,7.0,81,0.00,,,0.08,72.000000,,2013-03-07 02:01:00,
2013-03-06 19:11:00,33.0,28.0,-100.00,WSW,245,2.0,7.0,81,0.00,,,0.08,72.000000,,2013-03-07 02:11:00,
2013-03-06 19:32:00,31.0,28.0,-100.00,SE,130,1.0,6.0,89,0.00,,,0.08,1.000000,,2013-03-07 02:32:00,
2013-03-06 19:42:00,31.0,28.0,-100.00,SE,130,1.0,6.0,89,0.00,,,0.08,1.000000,,2013-03-07 02:42:00,
2013-03-06 19:52:00,31.0,28.0,-100.00,SE,130,1.0,6.0,89,0.00,,,0.08,1.000000,,2013-03-07 02:52:00,
2013-03-06 20:01:00,31.0,28.0,-100.00,SE,130,1.0,6.0,89,0.00,,,0.08,1.000000,,2013-03-07 03:01:00,
2013-03-06 20:11:00,31.0,28.0,-100.00,SE,130,1.0,6.0,89,0.00,,,0.08,1.000000,,2013-03-07 03:11:00,
2013-03-06 20:32:00,31.0,29.0,-100.00,South,189,2.0,5.0,92,0.00,,,0.08,0.000000,,2013-03-07 03:32:00,
2013-03-06 20:42:00,31.0,29.0,-100.00,South,189,2.0,5.0,92,0.00,,,0.08,0.000000,,2013-03-07 03:42:00,
2013-03-06 20:52:00,31.0,29.0,-100.00,South,189,2.0,5.0,92,0.00,,,0.08,0.000000,,2013-03-07 03:52:00,
2013-03-06 21:01:00,31.0,29.0,-100.00,South,189,2.0,5.0,92,0.00,,,0.08,0.000000,,2013-03-07 04:01:00,
2013-03-06 21:11:00,31.0,29.0,-100.00,South,189,2.0,5.0,92,0.00,,,0.08,0.000000,,2013-03-07 04:11:00,
2013-03-06 21:32:00,31.0,29.0,-100.00,SSW,197,3.0,4.0,94,0.00,,,0.08,0.000000,,2013-03-07 04:32:00,
2013-03-06 21:42:00,31.0,29.0,-100.00,SSW,197,3.0,4.0,94,0.00,,,0.08,0.000000,,2013-03-07 04:42:00,
2013-03-06 21:52:00,31.0,29.0,-100.00,SSW,197,3.0,4.0,94,0.00,,,0.08,0.000000,,2013-03-07 04:52:00,
2013-03-06 22:01:00,31.0,29.0,-100.00,SSW,197,3.0,4.0,94,0.00,,,0.08,0.000000,,2013-03-07 05:01:00,
2013-03-06 22:12:00,31.0,29.0,-100.00,SSW,197,3.0,4.0,94,0.00,,,0.08,0.000000,,2013-03-07 05:12:00,
2013-03-06 22:32:00,30.0,29.0,-100.00,South,172,2.0,5.0,97,0.00,,,0.08,0.000000,,2013-03-07 05:32:00,
2013-03-06 22:42:00,30.0,29.0,-100.00,South,172,2.0,5.0,97,0.00,,,0.08,0.000000,,2013-03-07 05:42:00,
2013-03-06 22:52:00,30.0,29.0,-100.00,South,172,2.0,5.0,97,0.00,,,0.08,0.000000,,2013-03-07 05:52:00,
2013-03-06 23:01:00,30.0,29.0,-100.00,South,172,2.0,5.0,97,0.00,,,0.08,0.000000,,2013-03-07 06:01:00,
2013-03-06 23:11:00,30.0,29.0,-100.00,South,172,2.0,5.0,97,0.00,,,0.08,0.000000,,2013-03-07 06:11:00,
2013-03-06 23:32:00,30.0,29.0,-100.00,NNE,22,1.0,4.0,97,0.00,,,0.08,0.000000,,2013-03-07 06:32:00,
2013-03-06 23:42:00,30.0,29.0,-100.00,NNE,22,1.0,4.0,97,0.00,,,0.08,0.000000,,2013-03-07 06:42:00,
2013-03-06 23:52:00,30.0,29.0,-100.00,NNE,22,1.0,4.0,97,0.00,,,0.08,0.000000,,2013-03-07 06:52:00,